sat.trackr.live / text

‹ back to catalog

STARLINK-31341

NORAD 59155 · 2024-044D

PAYLOAD ACTIVE UNKNOWN

§ Identity

Operator
Country
US
Launch date
2024-03-04
Launch site
AFETR
Launch vehicle
Mass (kg)
RCS (m²)

Purposes: comms

External: N2YO · Heavens-Above · Gunter

§ Orbital elements

Epoch: 2026-09-20T21:00:52.553664Z

Period
94.27 min
Inclination
42.9968°
Eccentricity
0.0001333
Mean motion
15.27584355 rev/d
Perigee alt
482.1 km
Apogee alt
484.0 km
Semi-major
6,861.2 km
B*
8.2790e-5
RAAN
88.4344°
Arg perigee
266.8244°
Mean anomaly
93.2455°
Rev number
14,337

§ Raw data

STARLINK-313411 59155U 24044D   26263.87560826  .00002017  00000+0  82790-4 0  99992 59155  42.9968  88.4344 0001333 266.8244  93.2455 15.27584355143379

JSON: /api/v1/satellites/59155 · /tle

For live sub-satellite position, see the globe view (requires WebGL).

§ Visibility from observer

Set your observer location to see the next 7 days of passes ≥ 10°. The values pass through the URL so the page stays shareable.

No JS? Fill the form by hand. The geolocation button needs JavaScript.